This demonstration page uses our WeatherBlox Daily Observations layout. Learn more.

Left ArrowRight Arrow

Hourly Observations for October 12, 2016

Temp ( °F °C ) Dew Point ( °F °C ) Humidity (%) Winds ( mph kmh ) Pressure ( in mb ) Visibility ( mi km ) Precip ( " mm )
12:08 am 00:08 Cloudy 50 10 43 6 76 76 N 23 37 30.09 1019 10 16.0934 0 0
12:54 am 00:54 Cloudy 50 10 41 5 71 71 NNW 18 30 30.08 1019 10 16.0934 0 0
1:50 am 01:50 Cloudy 48 9 37 3 66 66 N 24 39 30.09 1019 10 16.0934 0 0
1:54 am 01:54 Cloudy 49 9.4 38 3.3 66 66 N 26 43 30.06 1018 10 16.0934 0 0
2:54 am 02:54 Partly Cloudy 47 8.3 38 3.3 71 71 N 16 26 30.09 1019 10 16.0934 0 0
3:54 am 03:54 Cloudy 47 8.3 37 2.8 69 69 NNW 18 30 30.12 1020 10 16.0934 0 0
4:54 am 04:54 Cloudy 47 8.3 37 2.8 69 69 NNW 20 31 30.14 1021 10 16.0934 0 0
5:54 am 05:54 Cloudy 46 7.8 37 2.8 71 71 N 22 35 30.16 1021 10 16.0934 0 0
6:01 am 06:01 Cloudy with Light Rain 46 7.8 38 3.3 73 73 N 17 28 30.18 1022 10 16.0934 0 0.0254
6:54 am 06:54 Cloudy with Light Rain 45 7.2 38 3.3 77 77 N 17 28 30.24 1024 10 16.0934 0 0.0254
7:10 am 07:10 Cloudy 45 7 37 3 76 76 N 17 28 30.27 1025 10 16.0934 0 0
7:54 am 07:54 Cloudy with Light Rain 43 6.1 40 4.4 89 89 N 12 19 30.27 1025 10 16.0934 0.01 0.254
8:54 am 08:54 Cloudy with Light Rain 44 6.7 39 3.9 83 83 NW 12 19 30.31 1026 10 16.0934 0 0.0254
9:24 am 09:24 Cloudy 45 7 39 4 81 81 N 13 20 30.3 1026 10 16.0934 0 0
9:42 am 09:42 Cloudy 45 7 39 4 81 81 NNW 14 22 30.3 1026 10 16.0934 0 0
9:54 am 09:54 Cloudy 44 6.7 40 4.4 85 85 N 15 24 30.29 1026 10 16.0934 0 0.0254
10:14 am 10:14 Cloudy 45 7 39 4 81 81 N 18 30 30.3 1026 10 16.0934 0 0
10:54 am 10:54 Cloudy 46 7.8 39 3.9 77 77 N 24 39 30.29 1026 10 16.0934 0 0
11:54 am 11:54 Mostly Cloudy 48 8.9 37 2.8 66 66 NNW 20 31 30.31 1026 10 16.0934 0 0
12:54 pm 12:54 Mostly Cloudy 52 11.1 37 2.8 57 57 NNW 17 28 30.31 1026 10 16.0934 0 0
1:18 pm 13:18 Mostly Cloudy 52 11 36 2 54 54 NNW 16 26 30.3 1026 10 16.0934 0 0
1:54 pm 13:54 Mostly Cloudy 52 11.1 36 2.2 55 55 NNW 20 31 30.3 1026 10 16.0934 0 0
2:54 pm 14:54 Mostly Cloudy 52 11.1 36 2.2 55 55 NNW 17 28 30.29 1026 10 16.0934 0 0
3:54 pm 15:54 Mostly Cloudy 51 10.6 35 1.7 54 54 N 16 26 30.29 1026 10 16.0934 0 0
4:54 pm 16:54 Sunny 51 10.6 34 1.1 52 52 NNW 10 17 30.29 1026 10 16.0934 0 0
5:54 pm 17:54 Sunny 50 10 33 0.6 52 52 N 10 17 30.3 1026 10 16.0934 0 0
6:54 pm 18:54 Clear 43 6.1 34 1.1 71 71 NNE 6 9 30.32 1027 10 16.0934 0 0
7:54 pm 19:54 Clear 40 4.4 33 0.6 77 77 N 8 13 30.33 1027 10 16.0934 0 0
8:54 pm 20:54 Clear 39 3.9 33 0.6 79 79 N 8 13 30.34 1027 10 16.0934 0 0
9:54 pm 21:54 Clear 38 3.3 32 0 79 79 N 6 9 30.36 1028 10 16.0934 0 0
10:54 pm 22:54 Clear 34 1.1 31 -0.6 89 89 N 5 7 30.37 1028 10 16.0934 0 0
11:54 pm 23:54 Clear 36 2.2 31 -0.6 82 82 Calm 30.37 1029 10 16.0934 0 0

Powered by AerisWeather